Location: Oshawa
(43.9000°N, 78.8670°W)
Time: 21:08:20
(UTC-04:00)

Amateur Radio Satellites - All Passes

Search period start: 20 October 2017 20:38
Search period end: 21 October 2017 20:38
Location: Oshawa, 43.9000°N, 78.8670°W

Satellite Date Start Highest point End Downlink Frequencies (MHz)
Time Altitude Azimuth
AO-73 20 Oct 21:00:06 21:04:39 68° 259° (W) 21:09:13 145.935
FO-29 20 Oct 21:00:41 21:06:18 25° 92° (E) 21:12:17 435.910
STRAND 1 20 Oct 21:00:51 21:06:03 85° 285° (WNW) 21:11:12 437.568
EO-88 20 Oct 21:07:56 21:08:46 11° 63° (ENE) 21:09:35 145.990 - 145.960
CUBEBUG 2 20 Oct 21:09:57 21:13:08 18° 270° (W) 21:16:22 437.445
Max Valier Satellite 20 Oct 21:16:29 21:19:09 19° 67° (ENE) 21:21:48 145.860
AO-85 20 Oct 21:18:44 21:22:24 24° 43° (NE) 21:26:17 145.980
ZACube-1 20 Oct 21:22:49 21:27:02 36° 263° (W) 21:31:17 437.345
HO-68 20 Oct 21:24:24 21:28:31 16° 272° (W) 21:32:40 435.675
BEESAT 2 20 Oct 21:24:27 21:28:03 30° 46° (NE) 21:31:37 435.950
BEESAT 3 20 Oct 21:40:19 21:44:14 64° 240° (WSW) 21:48:06 437.485
O/OREOS (USA 219) 20 Oct 21:47:31 21:52:02 60° 296° (WNW) 21:56:36 437.305
UWE-3 20 Oct 21:48:48 21:50:44 12° 272° (W) 21:52:42 435.000/436.395/437.385
DELFI C3 20 Oct 21:59:38 22:03:32 85° 77° (ENE) 22:07:28 145.870
Oscar 11 20 Oct 21:59:58 22:03:25 23° 266° (W) 22:06:53 .
ESTCUBE 1 20 Oct 22:30:06 22:32:12 13° 60° (ENE) 22:34:19 437.505/2401.250
YUBILEINY 20 Oct 22:32:15 22:40:08 39° 275° (W) 22:48:02 435.215
EO-88 20 Oct 22:38:18 22:41:54 60° 259° (W) 22:45:31 145.990 - 145.960
UNISAT 6 20 Oct 22:41:39 22:45:59 39° 97° (E) 22:50:11 437.425
STRAND 1 20 Oct 22:42:15 22:44:25 13° 303° (WNW) 22:46:35 437.568
FO-29 20 Oct 22:44:53 22:51:41 69° 288° (WNW) 22:59:12 435.910
Max Valier Satellite 20 Oct 22:49:22 22:52:44 32° 263° (W) 22:56:08 145.860
RS-15 20 Oct 22:55:17 22:59:10 12° 92° (E) 23:03:02 29.354- 29.394
TIGRISAT 20 Oct 22:56:14 23:00:45 50° 99° (E) 23:05:07 435.000
AO-85 20 Oct 22:58:36 23:03:03 53° 240° (WSW) 23:07:50 145.980
BEESAT 2 20 Oct 23:02:12 23:05:44 29° 245° (WSW) 23:09:13 435.950
LO-87 20 Oct 23:26:25 23:29:58 62° 74° (ENE) 23:33:33 145.935 - 145.965
PRISM 20 Oct 23:39:03 23:43:10 66° 102° (ESE) 23:47:16 437.425
VELOX 1 20 Oct 23:53:19 23:56:08 17° 63° (ENE) 23:58:57 145.980
QB50P2 20 Oct 23:59:52 00:01:41 12° 89° (E) 00:03:31 145.880/145.840
NANOSAT C BR1 21 Oct 00:03:29 00:04:20 10° 88° (E) 00:05:13 145.865
ESTCUBE 1 21 Oct 00:03:56 00:08:25 73° 258° (WSW) 00:12:55 437.505/2401.250
DUCHIFAT 1 21 Oct 00:13:13 00:14:53 12° 89° (E) 00:16:33 145.980
UNISAT 6 21 Oct 00:18:48 00:22:27 23° 295° (WNW) 00:26:02 437.425
AIST 2D 21 Oct 00:28:56 00:32:25 68° 101° (E) 00:35:51 435.315
FO-29 21 Oct 00:32:12 00:35:42 15° 305° (NW) 00:39:24 435.910
TIGRISAT 21 Oct 00:33:49 00:37:01 19° 297° (WNW) 00:40:10 435.000
SPROUT 21 Oct 00:39:01 00:43:15 67° 75° (ENE) 00:47:32 437.525
RS-15 21 Oct 00:56:55 01:08:47 58° 113° (ESE) 01:20:38 29.354- 29.394
DX 1 21 Oct 00:57:33 01:00:43 20° 64° (ENE) 01:03:54 434.975-435.025
EO-79 21 Oct 01:08:23 01:12:38 63° 101° (E) 01:16:50 145.935-145.965
POLYITAN 1 21 Oct 01:13:16 01:17:33 71° 102° (ESE) 01:21:46 437.675
PRISM 21 Oct 01:16:07 01:17:54 13° 299° (WNW) 01:19:40 437.425
UKube-1 21 Oct 01:20:17 01:23:36 22° 65° (ENE) 01:26:56 .
VELOX 1 21 Oct 01:27:54 01:32:10 52° 260° (W) 01:36:28 145.980
QB50P2 21 Oct 01:33:39 01:37:53 62° 286° (WNW) 01:42:04 145.880/145.840
50 SAT 21 Oct 01:34:39 01:37:48 51° 74° (ENE) 01:41:00 437.505
NANOSAT C BR1 21 Oct 01:36:17 01:40:32 72° 285° (WNW) 01:44:45 145.865
Gurwin Techsat 1B 21 Oct 01:42:25 01:44:15 12° 87° (E) 01:46:04 435.225
DUCHIFAT 1 21 Oct 01:46:45 01:50:57 63° 286° (WNW) 01:55:07 145.980
BUGSAT 1 21 Oct 01:52:23 01:56:21 38° 98° (E) 02:00:15 437.445
MOZHAYETS 4 21 Oct 02:07:36 02:09:05 11° 59° (ENE) 02:10:34
SPROUT 21 Oct 02:18:05 02:19:36 12° 271° (W) 02:21:06 437.525
DX 1 21 Oct 02:32:32 02:36:37 41° 261° (W) 02:40:44 434.975-435.025
ITUPSAT 1 21 Oct 02:39:53 02:43:34 22° 63° (ENE) 02:47:16 437.325
M-CUBED/EXP-1 PRIME 21 Oct 02:43:09 02:46:26 33° 104° (ESE) 02:49:56 437.505
Oscar 19 21 Oct 02:43:24 02:48:29 61° 101° (E) 02:53:33 437.125/150
EO-79 21 Oct 02:45:42 02:47:52 14° 299° (WNW) 02:50:02 145.935-145.965
POLYITAN 1 21 Oct 02:50:57 02:52:43 12° 300° (WNW) 02:54:30 437.675
BEESAT 21 Oct 02:54:24 02:58:34 30° 66° (ENE) 03:02:44 436.000
UKube-1 21 Oct 02:55:26 02:59:24 36° 262° (W) 03:03:24 .
NO-84 21 Oct 03:01:35 03:05:12 27° 129° (SE) 03:08:48 435.350 FM
RS-15 21 Oct 03:09:36 03:21:36 53° 318° (NW) 03:33:30 29.354- 29.394
Gurwin Techsat 1B 21 Oct 03:19:33 03:24:55 89° 90° (E) 03:30:14 435.225
BUGSAT 1 21 Oct 03:28:17 03:31:27 21° 295° (WNW) 03:34:34 437.445
MOZHAYETS 4 21 Oct 03:40:51 03:45:31 90° 316° (NW) 03:50:10
CUBESAT XI-V 21 Oct 03:54:31 03:58:29 29° 67° (ENE) 04:02:28 437.345
AO-7 21 Oct 04:05:26 04:12:58 37° 98° (E) 04:20:28 .
ITUPSAT 1 21 Oct 04:16:29 04:21:05 45° 261° (W) 04:25:44 437.325
M-CUBED/EXP-1 PRIME 21 Oct 04:18:12 04:20:42 18° 298° (WNW) 04:23:18 437.505
Oscar 19 21 Oct 04:23:49 04:27:19 19° 299° (WNW) 04:30:50 437.125/150
BEESAT 21 Oct 04:32:00 04:36:16 32° 264° (W) 04:40:33 436.000
NO-84 21 Oct 04:38:12 04:42:26 55° 327° (NNW) 04:46:34 435.350 FM
ITAMSAT 1 21 Oct 04:56:33 05:01:48 68° 102° (ESE) 05:07:00 435.822/435.867
Gurwin Techsat 1B 21 Oct 05:01:23 05:04:06 14° 303° (WNW) 05:06:48 435.225
KKS-1 21 Oct 05:03:22 05:07:34 44° 70° (ENE) 05:11:49 437.445
DOVE 4 21 Oct 05:26:31 05:30:18 21° 92° (E) 05:34:11 437.250
RS-15 21 Oct 05:27:38 05:37:47 28° 350° (N) 05:47:43 29.354- 29.394
CUBESAT XI-V 21 Oct 05:31:42 05:35:47 30° 264° (W) 05:39:52 437.345
STARS 21 Oct 05:34:13 05:38:16 38° 70° (ENE) 05:42:23 437.465
AO-7 21 Oct 05:57:58 06:05:59 55° 297° (WNW) 06:13:59 .
SO-50 21 Oct 06:14:20 06:16:49 15° 109° (ESE) 06:19:18 436.795
O/OREOS (USA 219) 21 Oct 06:17:03 06:21:21 37° 60° (ENE) 06:25:35 437.305
NO-84 21 Oct 06:17:19 06:20:33 20° 346° (NNW) 06:23:40 435.350 FM
XW-2B 21 Oct 06:20:36 06:22:15 12° 91° (E) 06:23:53 145.730 - 145.750
ITAMSAT 1 21 Oct 06:37:15 06:40:43 18° 300° (WNW) 06:44:10 435.822/435.867
STRAND 1 21 Oct 06:40:32 06:44:23 22° 62° (ENE) 06:48:17 437.568
KKS-1 21 Oct 06:41:12 06:44:20 19° 267° (W) 06:47:29 437.445
XW-2C 21 Oct 06:42:43 06:45:46 23° 95° (E) 06:48:48 145.795 - 145.815
HO-68 21 Oct 07:00:35 07:04:57 17° 88° (E) 07:09:16 435.675
DOVE 4 21 Oct 07:03:21 07:08:11 51° 288° (WNW) 07:13:12 437.250
CUTE-I 21 Oct 07:11:00 07:16:05 41° 98° (E) 07:21:09 437.470
STARS 21 Oct 07:11:24 07:14:44 21° 266° (W) 07:18:07 437.465
KAITUO 1B 21 Oct 07:23:17 07:26:53 52° 99° (E) 07:30:29 145.475/437.950
CUBEBUG 2 21 Oct 07:24:37 07:24:56 10° 86° (E) 07:25:15 437.445
XW-2F 21 Oct 07:26:24 07:30:08 76° 101° (E) 07:33:51 145.980 - 146.000
LilacSat-2 21 Oct 07:33:21 07:37:07 77° 283° (WNW) 07:40:51 437.200
NUDT-PHONESAT 21 Oct 07:36:05 07:39:46 74° 102° (ESE) 07:43:23 437.300
XW-2D 21 Oct 07:39:30 07:43:13 66° 285° (WNW) 07:46:55 145.860 - 145.880
RS-15 21 Oct 07:44:24 07:55:10 34° 25° (NNE) 08:05:26 29.354- 29.394
CUTE 1.7 + AOD 2 21 Oct 07:48:44 07:52:27 30° 96° (E) 07:56:07 437.475
SO-50 21 Oct 07:52:16 07:56:43 67° 307° (NW) 08:01:13 436.795
AO-7 21 Oct 07:53:02 07:56:57 14° 319° (NW) 08:00:52 .
XW-2B 21 Oct 07:53:04 07:56:41 47° 287° (WNW) 08:00:17 145.730 - 145.750
SEEDS 21 Oct 07:54:35 07:57:48 21° 93° (E) 08:01:00 437.485
NO-84 21 Oct 07:56:18 07:59:08 18° 7° (N) 08:01:52 435.350 FM
O/OREOS (USA 219) 21 Oct 07:56:50 08:00:33 25° 257° (WSW) 08:04:15 437.305
UWE-3 21 Oct 07:59:10 08:01:27 14° 89° (E) 08:03:42 435.000/436.395/437.385
AAUSAT CUBESAT 2 21 Oct 08:16:21 08:18:59 16° 91° (E) 08:21:37 437.432
XW-2C 21 Oct 08:16:48 08:19:54 25° 291° (WNW) 08:22:58 145.795 - 145.815
STRAND 1 21 Oct 08:18:12 08:23:12 52° 260° (W) 08:28:15 437.568
PCSat 21 Oct 08:35:25 08:40:39 52° 115° (ESE) 08:45:56 145.827
HO-68 21 Oct 08:46:21 08:53:36 89° 106° (ESE) 09:00:49 435.675
AO-73 21 Oct 08:47:30 08:50:47 21° 92° (E) 08:53:59 145.935
CUTE-I 21 Oct 08:51:24 08:55:56 29° 296° (WNW) 09:00:28 437.470
XW-2A 21 Oct 08:56:14 08:59:34 62° 100° (E) 09:02:51 145.665 - 145.685
CUBEBUG 2 21 Oct 08:57:32 09:02:13 85° 283° (WNW) 09:06:43 437.445
KAITUO 1B 21 Oct 08:58:56 09:00:25 12° 297° (WNW) 09:01:55 145.475/437.950
FO-29 21 Oct 08:59:25 09:04:34 61° 71° (ENE) 09:10:10 435.910
ZACube-1 21 Oct 09:09:31 09:13:39 39° 97° (E) 09:17:39 437.345
CUTE 1.7 + AOD 2 21 Oct 09:24:42 09:28:09 25° 292° (WNW) 09:31:36 437.475
SEEDS 21 Oct 09:29:47 09:33:33 34° 290° (WNW) 09:37:18 437.485
nSIGHT-1 21 Oct 09:32:54 09:34:57 16° 134° (SE) 09:37:01 .
NO-84 21 Oct 09:33:43 09:37:28 38° 29° (NNE) 09:40:54 435.350 FM
UWE-3 21 Oct 09:33:52 09:38:20 60° 287° (WNW) 09:42:39 435.000/436.395/437.385
SO-50 21 Oct 09:35:47 09:38:03 13° 328° (NNW) 09:40:18 436.795
YUBILEINY 21 Oct 09:37:33 09:45:53 54° 90° (E) 09:54:17 435.215
UNISAT 6 21 Oct 09:41:13 09:45:33 40° 70° (ENE) 09:49:58 437.425
Oscar 11 21 Oct 09:44:31 09:48:48 58° 101° (E) 09:53:01 .
AAUSAT CUBESAT 2 21 Oct 09:50:43 09:54:39 43° 288° (WNW) 09:58:33 437.432
TIGRISAT 21 Oct 09:55:33 10:00:03 51° 72° (ENE) 10:04:37 435.000
RS-15 21 Oct 09:57:43 10:09:48 80° 54° (NE) 10:21:10 29.354- 29.394
ISS 21 Oct 10:07:09 10:10:01 29° 138° (SE) 10:12:53 437.550
Max Valier Satellite 21 Oct 10:18:01 10:20:44 19° 93° (E) 10:23:25 145.860
PCSat 21 Oct 10:19:41 10:24:19 28° 314° (NW) 10:28:59 145.827
AO-73 21 Oct 10:23:07 10:27:09 37° 290° (WNW) 10:31:04 145.935
PRISM 21 Oct 10:29:13 10:33:09 54° 73° (ENE) 10:37:08 437.425
HO-68 21 Oct 10:35:24 10:40:26 21° 306° (NW) 10:45:27 435.675
CUBEBUG 2 21 Oct 10:37:00 10:37:59 11° 302° (WNW) 10:38:58 437.445
ZACube-1 21 Oct 10:46:23 10:49:39 21° 295° (WNW) 10:52:50 437.345
FO-29 21 Oct 10:46:53 10:50:19 17° 272° (W) 10:53:54 435.910
QB50P2 21 Oct 10:54:09 10:55:58 13° 61° (ENE) 10:57:47 145.880/145.840
NANOSAT C BR1 21 Oct 10:57:15 10:58:14 11° 59° (ENE) 10:59:12 145.865
AIST 2D 21 Oct 11:04:23 11:07:25 28° 71° (ENE) 11:10:28 435.315
DUCHIFAT 1 21 Oct 11:06:44 11:08:20 12° 60° (ENE) 11:09:56 145.980
nSIGHT-1 21 Oct 11:07:43 11:10:54 69° 330° (NNW) 11:14:06 .
DELFI C3 21 Oct 11:09:27 11:13:25 70° 285° (WNW) 11:17:22 145.870
NO-84 21 Oct 11:11:20 11:14:48 34° 228° (SW) 11:17:58 435.350 FM
UNISAT 6 21 Oct 11:18:43 11:22:23 23° 267° (W) 11:26:06 437.425
Oscar 11 21 Oct 11:22:01 11:24:27 15° 297° (WNW) 11:26:52 .
BEESAT 3 21 Oct 11:32:22 11:34:31 14° 110° (ESE) 11:36:42 437.485
TIGRISAT 21 Oct 11:33:52 11:37:01 18° 269° (W) 11:40:13 435.000
YUBILEINY 21 Oct 11:35:13 11:43:00 36° 291° (WNW) 11:50:54 435.215
EO-88 21 Oct 11:38:53 11:42:27 55° 286° (WNW) 11:46:00 145.990 - 145.960
ISS 21 Oct 11:43:16 11:46:24 43° 336° (NNW) 11:49:33 437.550
Max Valier Satellite 21 Oct 11:51:23 11:54:35 28° 290° (WNW) 11:57:46 145.860
ESTCUBE 1 21 Oct 11:55:33 11:58:58 21° 93° (E) 12:02:21 437.505/2401.250
EO-79 21 Oct 12:01:35 12:05:44 54° 73° (ENE) 12:09:56 145.935-145.965
POLYITAN 1 21 Oct 12:06:33 12:10:47 62° 73° (ENE) 12:15:02 437.675
PRISM 21 Oct 12:06:55 12:08:46 13° 269° (W) 12:10:37 437.425
RS-15 21 Oct 12:11:24 12:20:57 31° 257° (WSW) 12:30:07 29.354- 29.394
LO-87 21 Oct 12:24:57 12:28:34 64° 101° (E) 12:32:10 145.935 - 145.965
Oscar 19 21 Oct 12:25:10 12:28:02 15° 58° (ENE) 12:30:53 437.125/150
SPROUT 21 Oct 12:26:14 12:26:42 10° 88° (E) 12:27:10 437.525
QB50P2 21 Oct 12:26:54 12:31:10 72° 258° (WSW) 12:35:28 145.880/145.840
NANOSAT C BR1 21 Oct 12:29:00 12:33:15 84° 253° (WSW) 12:37:33 145.865
AIST 2D 21 Oct 12:38:13 12:40:38 18° 267° (W) 12:43:04 435.315
DUCHIFAT 1 21 Oct 12:39:09 12:43:22 75° 257° (WSW) 12:47:39 145.980
BUGSAT 1 21 Oct 12:43:04 12:46:48 32° 69° (ENE) 12:50:35 437.445
nSIGHT-1 21 Oct 12:44:59 12:47:35 22° 350° (N) 12:50:12 .
BEESAT 2 21 Oct 12:53:56 12:57:28 31° 116° (ESE) 13:01:03 435.950
Gurwin Techsat 1B 21 Oct 13:03:42 13:07:50 24° 63° (ENE) 13:11:59 435.225
BEESAT 3 21 Oct 13:07:39 13:11:36 58° 308° (NW) 13:15:36 437.485
AO-85 21 Oct 13:14:56 13:18:22 31° 116° (ESE) 13:21:54 145.980
VELOX 1 21 Oct 13:16:35 13:20:18 25° 95° (E) 13:23:59 145.980
AO-7 21 Oct 13:18:31 13:22:40 15° 42° (NE) 13:26:49 .
ISS 21 Oct 13:20:54 13:23:27 21° 356° (N) 13:26:01 437.550
M-CUBED/EXP-1 PRIME 21 Oct 13:30:29 13:33:46 53° 68° (ENE) 13:36:57 437.505
ESTCUBE 1 21 Oct 13:31:43 13:35:54 40° 290° (WNW) 13:40:05 437.505/2401.250
EO-79 21 Oct 13:39:31 13:41:50 14° 270° (W) 13:44:09 145.935-145.965
POLYITAN 1 21 Oct 13:45:04 13:46:57 13° 270° (W) 13:48:51 437.675
SPROUT 21 Oct 13:58:48 14:03:07 76° 285° (WNW) 14:07:23 437.525
Oscar 19 21 Oct 14:01:30 14:06:40 81° 256° (WSW) 14:11:52 437.125/150
BUGSAT 1 21 Oct 14:18:47 14:22:10 23° 266° (W) 14:25:37 437.445
DX 1 21 Oct 14:19:09 14:22:58 29° 96° (E) 14:26:46 434.975-435.025
nSIGHT-1 21 Oct 14:22:00 14:24:37 22° 10° (N) 14:27:13 .
50 SAT 21 Oct 14:24:12 14:27:18 36° 99° (E) 14:30:23 437.505
BEESAT 2 21 Oct 14:31:38 14:35:11 29° 314° (NW) 14:38:46 435.950
ITAMSAT 1 21 Oct 14:38:51 14:42:12 18° 59° (ENE) 14:45:34 435.822/435.867
UKube-1 21 Oct 14:40:42 14:44:34 31° 97° (E) 14:48:23 .
SO-50 21 Oct 14:42:07 14:45:55 25° 42° (NE) 14:49:44 436.795
Gurwin Techsat 1B 21 Oct 14:42:17 14:47:26 51° 260° (W) 14:52:37 435.225
BEESAT 3 21 Oct 14:49:07 14:50:00 11° 327° (NNW) 14:50:52 437.485
VELOX 1 21 Oct 14:52:47 14:56:45 32° 292° (WNW) 15:00:42 145.980
AO-85 21 Oct 14:55:26 14:58:46 26° 316° (NW) 15:02:13 145.980
ISS 21 Oct 14:57:46 15:00:38 28° 16° (NNE) 15:03:31 437.550
AO-7 21 Oct 15:05:40 15:13:42 57° 64° (ENE) 15:21:44 .
MOZHAYETS 4 21 Oct 15:35:21 15:38:35 19° 92° (E) 15:41:48
PCSat 21 Oct 15:39:54 15:42:30 13° 33° (NNE) 15:45:07 145.827
DX 1 21 Oct 15:55:20 15:59:05 28° 293° (WNW) 16:02:49 434.975-435.025
50 SAT 21 Oct 15:57:41 15:59:16 13° 295° (WNW) 16:00:52 437.505
nSIGHT-1 21 Oct 15:58:07 16:01:19 67° 30° (NNE) 16:04:30 .
ITUPSAT 1 21 Oct 16:15:21 16:19:52 40° 98° (E) 16:24:20 437.325
ITAMSAT 1 21 Oct 16:15:55 16:21:05 70° 257° (WSW) 16:26:19 435.822/435.867
UKube-1 21 Oct 16:16:51 16:20:27 26° 294° (WNW) 16:24:02 .
SO-50 21 Oct 16:22:09 16:26:38 52° 241° (WSW) 16:31:09 436.795
BEESAT 21 Oct 16:29:53 16:34:37 57° 101° (ESE) 16:39:18 436.000
DOVE 4 21 Oct 16:34:02 16:37:10 20° 64° (ENE) 16:40:23 437.250
ISS 21 Oct 16:34:05 16:37:21 70° 215° (SW) 16:40:36 437.550
CUTE-I 21 Oct 16:58:19 17:00:16 12° 55° (NE) 17:02:12 437.470
AO-7 21 Oct 16:59:25 17:06:46 35° 263° (W) 17:14:12 .
MOZHAYETS 4 21 Oct 17:11:35 17:15:59 46° 289° (WNW) 17:20:19
PCSat 21 Oct 17:21:46 17:27:07 57° 55° (NE) 17:32:26 145.827
CUBESAT XI-V 21 Oct 17:25:55 17:30:28 58° 100° (E) 17:35:00 437.345
XW-2C 21 Oct 17:25:58 17:28:13 15° 65° (ENE) 17:30:28 145.795 - 145.815
HO-68 21 Oct 17:32:06 17:36:21 17° 51° (NE) 17:40:36 435.675
nSIGHT-1 21 Oct 17:35:08 17:37:16 17° 226° (SW) 17:39:24 .
ITUPSAT 1 21 Oct 17:53:36 17:57:28 25° 296° (WNW) 18:01:19 437.325
KAITUO 1B 21 Oct 18:04:23 18:07:38 29° 70° (ENE) 18:10:53 145.475/437.950
XW-2F 21 Oct 18:08:08 18:11:41 41° 73° (ENE) 18:15:16 145.980 - 146.000
BEESAT 21 Oct 18:08:43 18:11:56 18° 298° (WNW) 18:15:08 436.000
DOVE 4 21 Oct 18:10:39 18:14:35 39° 263° (W) 18:18:42 437.250
LilacSat-2 21 Oct 18:15:58 18:19:44 61° 75° (ENE) 18:23:30 437.200
NUDT-PHONESAT 21 Oct 18:16:05 18:19:33 38° 72° (ENE) 18:23:01 437.300
XW-2D 21 Oct 18:21:23 18:25:09 68° 74° (ENE) 18:28:55 145.860 - 145.880
CUBEBUG 2 21 Oct 18:23:03 18:24:50 12° 59° (ENE) 18:26:37 437.445
KKS-1 21 Oct 18:28:51 18:33:21 74° 102° (ESE) 18:37:50 437.445
CUTE-I 21 Oct 18:34:06 18:39:23 77° 74° (ENE) 18:44:45 437.470
XW-2B 21 Oct 18:34:51 18:38:39 86° 256° (WSW) 18:42:28 145.730 - 145.750
CUTE 1.7 + AOD 2 21 Oct 18:42:40 18:46:10 26° 68° (ENE) 18:49:39 437.475
SEEDS 21 Oct 18:47:50 18:50:43 18° 65° (ENE) 18:53:36 437.485
UWE-3 21 Oct 18:57:14 18:59:56 15° 62° (ENE) 19:02:37 435.000/436.395/437.385
STARS 21 Oct 18:57:48 19:02:13 61° 102° (ESE) 19:06:35 437.465
XW-2C 21 Oct 18:58:26 19:02:03 42° 262° (W) 19:05:41 145.795 - 145.815
CUBESAT XI-V 21 Oct 19:04:29 19:07:23 17° 297° (WNW) 19:10:16 437.345
PCSat 21 Oct 19:05:59 19:10:06 22° 253° (WSW) 19:14:11 145.827
AAUSAT CUBESAT 2 21 Oct 19:08:26 19:10:30 14° 63° (ENE) 19:12:36 437.432
HO-68 21 Oct 19:15:47 19:22:55 76° 71° (ENE) 19:30:07 435.675
XW-2A 21 Oct 19:28:38 19:31:29 25° 69° (ENE) 19:34:19 145.665 - 145.685
KAITUO 1B 21 Oct 19:38:52 19:41:38 20° 266° (W) 19:44:25 145.475/437.950
XW-2F 21 Oct 19:43:54 19:46:00 14° 269° (W) 19:48:07 145.980 - 146.000
AO-73 21 Oct 19:43:59 19:47:25 21° 65° (ENE) 19:50:50 145.935
YUBILEINY 21 Oct 19:46:01 19:53:26 29° 66° (ENE) 20:00:48 435.215
BEESAT 3 21 Oct 19:46:19 19:48:58 17° 39° (NE) 19:51:36 437.485
NUDT-PHONESAT 21 Oct 19:51:22 19:53:34 15° 268° (W) 19:55:46 437.300
LilacSat-2 21 Oct 19:53:54 19:54:23 10° 271° (W) 19:54:53 437.200
CUBEBUG 2 21 Oct 19:55:59 20:00:40 89° 243° (WSW) 20:05:29 437.445
AO-85 21 Oct 20:05:28 20:06:20 10° 31° (NNE) 20:07:13 145.980
ZACube-1 21 Oct 20:05:57 20:10:11 38° 70° (ENE) 20:14:25 437.345
KKS-1 21 Oct 20:07:12 20:09:19 13° 300° (WNW) 20:11:25 437.445
CUTE-I 21 Oct 20:17:13 20:20:02 14° 271° (W) 20:22:52 437.470
CUTE 1.7 + AOD 2 21 Oct 20:18:11 20:21:53 29° 264° (W) 20:25:36 437.475
SEEDS 21 Oct 20:22:08 20:26:05 41° 262° (W) 20:30:04 437.485
STRAND 1 21 Oct 20:27:06 20:32:07 48° 100° (E) 20:37:03 437.568
